SCP
3 4 5 4 5 5 5 4 1 1 1 0 0 0 0 0 0 0 0 0 0 0
3 4 5 5 5 3 1 1 1 0 0 0 0 0 0 0 0 0 0 0 0 0
4 4 6 4 2 1 0 0 0 0 0 0 0 0 0 0 0 0 0 0 0 0
5 4 3 2 1 1 0 0 0 0 0 0 0 0 0 0 0 0 0 0 0 0
5 5 2 0 0 0 0 0 0 0 0 0 0 0 0 0 0 0 0 0 0 0
4 2 0 0 0 0 0 0 0 0 0 0 0 0 0 0 0 0 0 0 0 0
0 0 0 0 0 0 0 0 0 0 0 0 0 0 0 0 0 0 0 0 0 0
0 0 0 0 0 0 0 0 0 0 0 0 0 0 0 0 0 0 0 0 0 0
0 0 0 0 0 0 0 0 0 0 0 0 0 0 0 0 0 0 0 0 0 0
0 0 0 0 0 0 0 0 0 0 0 0 0 0 0 0 0 0 0 0 0 0
0 0 0 0 0 0 0 0 0 0 0 0 0 0 0 0 0 0 0 0 0 0
0 0 0 0 0 0 0 0 0 0 0 0 0 0 0 0 0 0 0 0 0 0
0 0 0 0 0 0 0 0 0 0 0 0 0 0 0 0 0 0 0 0 0 0
0 0 0 0 0 0 0 0 0 0 0 0 0 0 0 0 0 0 0 0 0 0
Wind_Speed_500mb
97 90 79 75 63 58 63 61 49 42 36 37 14 11 29 41 40 38 24 24 33 31
98 95 84 73 59 50 53 52 41 34 30 7 32 18 18 40 37 19 24 31 30 25
95 96 88 73 58 48 49 47 32 10 6 25 35 18 33 28 20 22 29 25 22 22
98 94 82 67 53 46 43 56 25 6 49 60 41 29 29 22 22 24 24 23 22 25
95 82 70 62 49 34 30 42 25 46 63 49 32 25 24 20 22 22 23 24 24 25
76 64 63 58 46 41 38 47 53 59 53 40 25 25 27 23 22 19 23 24 25 23
76 67 64 56 48 46 48 58 63 57 39 33 30 29 24 20 18 18 18 14 10 7
71 73 65 60 52 56 56 60 54 46 41 35 28 21 16 13 11 7 5 4 5 6
86 77 67 61 61 57 52 51 39 40 33 26 17 14 14 7 3 1 1 2 2 4
83 78 70 66 63 58 56 48 39 33 25 16 10 4 5 4 4 4 2 3 2 7
91 85 81 74 70 62 54 42 36 28 19 13 12 12 8 6 5 3 5 2 4 8
92 89 86 80 71 62 52 45 35 26 20 16 16 13 8 4 5 6 3 1 4 9
99 92 85 77 70 60 48 43 35 30 24 22 15 14 10 7 6 3 3 2 7 7
89 84 76 70 62 56 48 41 36 31 28 21 17 15 13 8 2 4 2 5 13 10
Wind_Direction_500mb
229 230 234 231 233 231 226 226 223 233 233 209 195 204 244 273 293 284 266 278 291 290
228 230 233 230 234 232 229 225 220 208 182 183 218 294 264 266 271 248 282 284 284 281
223 228 230 226 228 226 228 207 164 191 354 275 266 261 245 238 237 269 273 265 265 272
225 227 222 223 222 225 216 203 196 105 244 237 221 217 217 230 259 245 250 254 265 283
218 216 215 217 218 203 201 178 189 191 214 207 203 206 226 223 223 235 255 271 284 291
211 198 207 206 203 186 189 189 190 193 189 188 194 205 206 218 234 253 272 284 288 289
206 201 194 195 187 175 172 172 170 171 179 184 190 193 210 236 258 283 288 288 289 291
195 183 182 177 177 169 166 162 162 163 169 175 182 205 233 268 297 295 273 272 292 310
176 177 177 176 178 175 166 163 168 168 172 180 203 242 276 290 301 224 313 329 290 323
175 170 171 173 171 166 165 166 176 176 177 186 198 203 118 112 72 46 63 185 253 319
169 166 164 166 163 162 164 169 176 174 175 176 148 132 138 106 56 105 163 187 320 339
165 162 161 161 161 161 166 170 167 163 155 148 143 141 123 102 108 170 181 311 342 359
159 159 160 159 159 156 164 162 157 152 147 142 141 142 144 141 177 213 246 327 352 37
151 152 155 155 155 156 155 151 148 146 140 138 140 145 135 158 190 224 195 89 80 55
Wind_Speed_850mb
97 90 79 75 63 58 63 61 49 42 36 37 14 11 29 41 40 38 24 24 33 31
98 95 84 73 59 50 53 52 41 34 30 7 32 18 18 40 37 19 24 31 30 25
95 96 88 73 58 48 49 47 32 10 6 25 35 18 33 28 20 22 29 25 22 22
98 94 82 67 53 46 43 56 25 6 49 60 41 29 29 22 22 24 24 23 22 25
95 82 70 62 49 34 30 42 25 46 63 49 32 25 24 20 22 22 23 24 24 25
76 64 63 58 46 41 38 47 53 59 53 40 25 25 27 23 22 19 23 24 25 23
76 67 64 56 48 46 48 58 63 57 39 33 30 29 24 20 18 18 18 14 10 7
71 73 65 60 52 56 56 60 54 46 41 35 28 21 16 13 11 7 5 4 5 6
86 77 67 61 61 57 52 51 39 40 33 26 17 14 14 7 3 1 1 2 2 4
83 78 70 66 63 58 56 48 39 33 25 16 10 4 5 4 4 4 2 3 2 7
91 85 81 74 70 62 54 42 36 28 19 13 12 12 8 6 5 3 5 2 4 8
92 89 86 80 71 62 52 45 35 26 20 16 16 13 8 4 5 6 3 1 4 9
99 92 85 77 70 60 48 43 35 30 24 22 15 14 10 7 6 3 3 2 7 7
89 84 76 70 62 56 48 41 36 31 28 21 17 15 13 8 2 4 2 5 13 10
Wind_Direction_850mb
229 230 234 231 233 231 226 226 223 233 233 209 195 204 244 273 293 284 266 278 291 290
228 230 233 230 234 232 229 225 220 208 182 183 218 294 264 266 271 248 282 284 284 281
223 228 230 226 228 226 228 207 164 191 354 275 266 261 245 238 237 269 273 265 265 272
225 227 222 223 222 225 216 203 196 105 244 237 221 217 217 230 259 245 250 254 265 283
218 216 215 217 218 203 201 178 189 191 214 207 203 206 226 223 223 235 255 271 284 291
211 198 207 206 203 186 189 189 190 193 189 188 194 205 206 218 234 253 272 284 288 289
206 201 194 195 187 175 172 172 170 171 179 184 190 193 210 236 258 283 288 288 289 291
195 183 182 177 177 169 166 162 162 163 169 175 182 205 233 268 297 295 273 272 292 310
176 177 177 176 178 175 166 163 168 168 172 180 203 242 276 290 301 224 313 329 290 323
175 170 171 173 171 166 165 166 176 176 177 186 198 203 118 112 72 46 63 185 253 319
169 166 164 166 163 162 164 169 176 174 175 176 148 132 138 106 56 105 163 187 320 339
165 162 161 161 161 161 166 170 167 163 155 148 143 141 123 102 108 170 181 311 342 359
159 159 160 159 159 156 164 162 157 152 147 142 141 142 144 141 177 213 246 327 352 37
151 152 155 155 155 156 155 151 148 146 140 138 140 145 135 158 190 224 195 89 80 55